Accueil
METAR-TAF:

METAR-TAF

Aéroports :

Jefferson County International Airport

Port Townsend, Washington, États-Unis

latitude: 48-03-14N, longitude: 122-48-38W, altitude: 33 m

Observation

Le bulletin a été fait il y a 24 minutes, à 17:55 UTC
Vent calme
Température 5°C
Humidité 93%
Pression 1021 hPa
Visibilité: 16.1 km
Ciel clair

METAR: K0S9 191755Z AUTO 00000KT 10SM CLR 05/04 A3016 RMK AO2

Heure: 10:19 (18:19 UTC)


TAF: absent

Observations et prévisions météorologiques de plus de 4000 aéroports (messages METAR et TAF).

Les stations disponibles sont représentées par des disques jaunes et rouges sur la carte.

Passer la souris dessus pour voir le nom de la station.

Cliquer dessus pour voir les observations et prévisions météorologiques.

Pour changer de carte: cliquez sur les boutons verts avec une croix noire pour zoomer, sur le bouton vert avec un tiret pour effectuer un zoom arrière, ou sur les flèches vertes pour les cartes adjacentes.


METAR-TAF: